Weather reports worldwide

Advertisment
Geilenkirchen, Germany (10500): temperature & dewpoint: 10.11.2018 05:00:00 - 16.11.2018 05:00:00 (CET)Geilenkirchen, Germany (10500): wind speed & gusts: 10.11.2018 05:00:00 - 16.11.2018 05:00:00 (CET)Geilenkirchen, Germany (10500): wind direction: 10.11.2018 05:00:00 - 16.11.2018 05:00:00 (CET)Geilenkirchen, Germany (10500): reduced air pressure: 10.11.2018 05:00:00 - 16.11.2018 05:00:00 (CET)Geilenkirchen, Germany (10500): visibility: 10.11.2018 05:00:00 - 16.11.2018 05:00:00 (CET)
Date & Time tt [°C] td [°C] ff [km/h] ff [kn] fx [km/h] fx [kn] dd ppp [hPa] vv [km]
16.11.2018 05:00:00 2,4 1,4 2 1 - - ESE 1026,5 10
16.11.2018 04:00:00 1,8 0,6 2 1 - - E 1026,5 10
16.11.2018 03:00:00 2,7 1,5 8 4 - - ESE 1026,5 10
16.11.2018 02:00:00 2,6 1,4 8 4 - - E 1026,3 10
16.11.2018 01:00:00 2,5 1,4 9 5 - - ESE 1026,2 10
16.11.2018 00:00:00 2,1 1,2 8 4 - - E 1026,5 10
15.11.2018 23:00:00 2,5 1,1 4 2 - - ESE 1026,2 10
15.11.2018 22:00:00 3,2 1,8 4 2 - - SE 1025,9 10
15.11.2018 21:00:00 3,0 2,3 9 5 - - ESE 1025,6 10
15.11.2018 20:00:00 4,1 3,0 9 5 - - ESE 1025,4 10
15.11.2018 19:00:00 5,0 3,3 11 6 - - E 1025,1 10
15.11.2018 18:00:00 6,4 3,9 9 5 - - E 1024,9 10
15.11.2018 17:00:00 7,8 4,5 16 9 - - E 1024,8 10
15.11.2018 16:00:00 9,9 5,5 18 10 - - E 1024,9 10
15.11.2018 15:00:00 11,0 6,1 16 9 - - E 1024,8 10
15.11.2018 14:00:00 10,7 5,9 18 10 - - E 1024,9 10
15.11.2018 13:00:00 10,6 5,8 21 11 - - ESE 1025,1 10
15.11.2018 12:00:00 9,4 5,5 15 8 - - ESE 1025,7 10
15.11.2018 11:00:00 7,8 4,3 18 10 - - E 1026,1 10
15.11.2018 10:00:00 6,1 3,6 11 6 - - ESE 1026,1 10
15.11.2018 09:00:00 4,7 3,0 11 6 - - ESE 1026,1 10
15.11.2018 08:00:00 3,6 2,6 11 6 - - ESE 1025,8 10
15.11.2018 07:00:00 3,2 2,4 11 6 - - ESE 1025,6 10
15.11.2018 06:00:00 3,8 2,9 9 5 - - ESE 1025,5 10
15.11.2018 05:00:00 3,8 3,0 8 4 - - ESE 1025,6 10
15.11.2018 04:00:00 4,0 3,3 5 3 - - ESE 1025,7 10
15.11.2018 03:00:00 4,1 3,4 8 4 - - ESE 1025,9 10
15.11.2018 02:00:00 4,6 3,9 5 3 - - ESE 1026,2 10
15.11.2018 01:00:00 2,7 2,1 8 4 - - E 1026,3 10
15.11.2018 00:00:00 4,3 3,5 8 4 - - ESE 1026,1 10
14.11.2018 23:00:00 3,3 2,9 8 4 - - ESE 1026,1 10
14.11.2018 22:00:00 4,1 3,6 4 2 - - ESE 1026,1 10
14.11.2018 21:00:00 4,9 4,0 5 3 - - ESE 1026,1 10
14.11.2018 20:00:00 7,9 7,1 4 2 - - SE 1026,5 10
14.11.2018 19:00:00 5,5 4,8 4 2 - - E 1026,6 10
14.11.2018 18:00:00 9,4 7,2 4 2 - - SE 1026,7 10
14.11.2018 17:00:00 11,2 7,6 9 5 - - ESE 1026,9 10
14.11.2018 16:00:00 12,3 8,0 13 7 - - E 1027,3 10
14.11.2018 15:00:00 13,5 7,6 11 6 - - E 1027,5 10
14.11.2018 14:00:00 13,7 7,6 9 5 - - E 1027,7 10
14.11.2018 13:00:00 13,4 6,8 8 4 - - SE 1028,1 10
14.11.2018 12:00:00 13,4 6,6 8 4 - - SSE 1028,6 10
14.11.2018 11:00:00 12,4 6,7 8 4 - - SSE 1028,9 10
14.11.2018 10:00:00 10,2 6,2 7 4 - - S 1029,1 35
14.11.2018 09:00:00 7,8 5,4 7 4 - - SSE 1029,2 30
14.11.2018 08:00:00 6,5 5,4 11 6 - - S 1028,6 20
14.11.2018 07:00:00 7,4 5,9 9 5 - - S 1028,6 10
14.11.2018 06:00:00 7,9 6,4 9 5 - - S 1028,7 10
14.11.2018 05:00:00 7,0 5,2 8 4 - - S 1029,3 10
14.11.2018 04:00:00 8,9 6,7 5 3 - - S 1029,6 10
14.11.2018 03:00:00 9,0 6,6 5 3 - - S 1029,8 10
14.11.2018 02:00:00 9,3 6,7 9 5 - - SSW 1029,7 10
14.11.2018 01:00:00 9,1 6,8 11 6 - - SSW 1029,9 10
14.11.2018 00:00:00 9,4 6,9 13 7 - - SW 1029,6 10
13.11.2018 23:00:00 9,5 6,8 11 6 - - SW 1029,6 10
13.11.2018 22:00:00 9,7 6,8 9 5 - - SW 1029,3 10
13.11.2018 21:00:00 10,0 6,9 11 6 - - SW 1029,1 10
13.11.2018 20:00:00 10,2 6,8 11 6 - - SW 1028,7 10
13.11.2018 19:00:00 10,6 6,9 8 4 - - SW 1028,2 10
13.11.2018 18:00:00 11,3 7,3 11 6 - - SW 1027,8 10
13.11.2018 17:00:00 11,9 7,1 15 8 - - WSW 1027,1 10
13.11.2018 16:00:00 13,0 7,4 21 11 - - W 1026,2 10
13.11.2018 15:00:00 12,7 6,9 26 14 50 27 WSW 1025,4 10
13.11.2018 14:00:00 12,5 7,2 29 16 54 29 WSW 1025,0 10
13.11.2018 13:00:00 12,9 7,2 26 14 - - WSW 1024,2 10
13.11.2018 12:00:00 12,5 7,3 29 16 58 31 WSW 1023,9 10
13.11.2018 11:00:00 12,3 7,8 24 13 50 27 WSW 1023,5 10
13.11.2018 10:00:00 12,0 7,9 18 10 - - SW 1022,8 10
13.11.2018 09:00:00 11,0 7,9 18 10 - - SW 1022,2 10
13.11.2018 08:00:00 10,5 7,9 18 10 - - WSW 1021,6 10
13.11.2018 07:00:00 10,8 7,6 15 8 - - SW 1020,7 10
13.11.2018 06:00:00 11,0 7,6 11 6 - - SW 1020,0 10
13.11.2018 05:00:00 10,8 7,6 11 6 - - SW 1019,7 10
13.11.2018 04:00:00 10,4 7,6 9 5 - - SSW 1019,5 10
13.11.2018 03:00:00 10,3 7,8 9 5 - - S 1019,5 10
13.11.2018 02:00:00 10,3 8,0 8 4 - - S 1019,3 10
13.11.2018 01:00:00 10,3 8,2 9 5 - - SSW 1019,2 10
13.11.2018 00:00:00 10,3 8,1 8 4 - - SSW 1019,6 10
12.11.2018 23:00:00 9,9 8,6 5 3 - - S 1018,9 10
12.11.2018 22:00:00 9,9 8,7 4 2 - - SW 1018,4 10
12.11.2018 21:00:00 9,8 8,9 5 3 - - WSW 1018,9 10
12.11.2018 20:00:00 10,2 9,1 8 4 - - WSW 1018,1 10
12.11.2018 19:00:00 10,7 9,3 11 6 - - WSW 1017,6 10
12.11.2018 18:00:00 11,3 9,9 9 5 - - WSW 1016,6 10
12.11.2018 17:00:00 11,3 10,2 9 5 - - W 1015,4 10
12.11.2018 16:00:00 11,8 10,1 9 5 - - WSW 1014,7 10
12.11.2018 15:00:00 11,2 10,5 5 3 - - WSW 1013,9 10
12.11.2018 14:00:00 11,2 10,4 16 9 - - WNW 1013,9 8
12.11.2018 13:00:00 11,9 11,0 9 5 - - WNW 1012,7 10
12.11.2018 12:00:00 11,6 10,7 5 3 - - WNW 1012,3 10
12.11.2018 11:00:00 12,0 11,0 8 4 - - NNW - 10
12.11.2018 10:00:00 11,4 10,6 11 6 - - E 1011,8 10
12.11.2018 09:00:00 10,8 10,2 9 5 - - E 1011,8 10
12.11.2018 08:00:00 10,8 10,1 5 3 - - ESE 1012,2 10
12.11.2018 07:00:00 10,9 10,2 4 2 - - SSE 1012,4 8
12.11.2018 06:00:00 10,9 9,9 4 2 - - SSE 1012,1 10
12.11.2018 05:00:00 11,0 9,7 2 1 - - SSE 1012,1 10
12.11.2018 04:00:00 10,9 9,6 8 4 - - SE 1012,4 10
12.11.2018 03:00:00 10,7 9,6 5 3 - - ESE 1012,3 10
12.11.2018 02:00:00 10,9 9,2 2 1 - - E 1012,6 10
12.11.2018 01:00:00 11,3 9,0 4 2 - - SSE 1012,2 10
12.11.2018 00:00:00 11,4 9,1 8 4 - - SSW 1012,2 10
11.11.2018 23:00:00 11,3 9,1 8 4 - - SSW 1011,8 10
11.11.2018 22:00:00 11,2 9,1 9 5 - - SSW 1011,6 10
11.11.2018 21:00:00 11,1 9,2 11 6 - - SSW 1010,5 10
11.11.2018 20:00:00 12,0 9,1 11 6 - - SW 1009,9 10
11.11.2018 19:00:00 12,4 9,5 11 6 - - S 1008,7 10
11.11.2018 18:00:00 - - - - - - - - -
11.11.2018 17:00:00 - - - - - - - - -
11.11.2018 16:00:00 - - - - - - - - -
11.11.2018 15:00:00 - - - - - - - - -
11.11.2018 14:00:00 - - - - - - - - -
11.11.2018 13:00:00 - - - - - - - - -
11.11.2018 12:00:00 - - - - - - - - -
11.11.2018 11:00:00 - - - - - - - - -
11.11.2018 10:00:00 - - - - - - - - -
11.11.2018 09:00:00 - - - - - - - - -
11.11.2018 08:00:00 - - - - - - - - -
11.11.2018 07:00:00 - - - - - - - - -
11.11.2018 06:00:00 - - - - - - - - -
11.11.2018 05:00:00 - - - - - - - - -
11.11.2018 04:00:00 - - - - - - - - -
11.11.2018 03:00:00 - - - - - - - - -
11.11.2018 02:00:00 - - - - - - - - -
11.11.2018 01:00:00 - - - - - - - - -
11.11.2018 00:00:00 - - - - - - - - -
10.11.2018 23:00:00 - - - - - - - - -
10.11.2018 22:00:00 - - - - - - - - -
10.11.2018 21:00:00 - - - - - - - - -
10.11.2018 20:00:00 - - - - - - - - -
10.11.2018 19:00:00 - - - - - - - - -
10.11.2018 18:00:00 - - - - - - - - -
10.11.2018 17:00:00 - - - - - - - - -
10.11.2018 16:00:00 - - - - - - - - -
10.11.2018 15:00:00 - - - - - - - - -
10.11.2018 14:00:00 - - - - - - - - -
10.11.2018 13:00:00 - - - - - - - - -
10.11.2018 12:00:00 - - - - - - - - -
10.11.2018 11:00:00 - - - - - - - - -
10.11.2018 10:00:00 - - - - - - - - -
10.11.2018 09:00:00 - - - - - - - - -
10.11.2018 08:00:00 - - - - - - - - -
10.11.2018 07:00:00 - - - - - - - - -
10.11.2018 06:00:00 - - - - - - - - -
10.11.2018 05:00:00 - - - - - - - - -

tt = temperature
td = dewpoint
ff = wind speed
fx = gusts
dd = wind direction
ppp = reduced air pressure
vv = visibility

Next stations